User: anonymous   Login
Location: Brno
(49.2000°N, 16.6330°E)
Time: 07:44:05
(UTC+02:00)
Language:

Cosmos 1459 Rocket - Orbit

View from above orbital plane
View from above orbital plane
View from above satellite
View from above satellite

Ground track
Ground track

The orbit data is extracted from the following two-line orbital elements,

1 14059U 83042B   15247.87453269  .00000081  00000-0  64687-4 0  9993
2 14059  82.9744 185.3281 0041353 297.3099 115.1854 13.78520932626029
Epoch (UTC): 04 September 2015 20:59:19
Eccentricity: 0.0041353
inclination: 82.9744°
perigee height: 939 km
apogee height: 999 km
right ascension of ascending node: 185.3281°
argument of perigee: 297.3099°
revolutions per day: 13.78520932
mean anomaly at epoch: 115.1854°
orbit number at epoch: 62602

The dashed part of the orbit path shows where the satellite is in the earth's shadow,  

DLR